カタログに戻る

SL-8 R/B

運用中LEO
NORAD 9598·ROCKET BODY·🇷🇺 Russia

打ち上げ Dec 7, 1976 から Plesetsk Cosmodrome

Loading…

次のパス (今後24時間)

TLE

最新Source: Space-Track

元期: Sep 14, 2026, 10:13 UTC

1 09598U 76118J   26257.42586646  .00000078  00000-0  82538-3 0  9991
2 09598  74.0121 251.0010 0136966 192.3553 321.7980 12.24177837224040

AllMySatでSL-8 R/Bをリアルタイム追跡

Download on the App Store